| time (UTC) | temp C | wind direction | speed KPH | gust KPH | rain 1hr cm | rain 24hr cm | rain mn cm | humidity % | barometer mb |
| 20260507140552 | 15 | 166 | 3.2 | 6.4 | 0.00 | 0.86 | 0.00 | 79 | 1018.8 |
| 20260507140109 | 15 | 188 | 1.6 | 9.7 | 0.00 | 0.86 | 0.00 | 80 | 1018.7 |
| 20260507135555 | 15 | 127 | 0.0 | 9.7 | 0.00 | 0.91 | 0.00 | 84 | 1018.6 |
| 20260507135052 | 15 | 211 | 3.2 | 9.7 | 0.00 | 0.91 | 0.00 | 80 | 1018.7 |
| 20260507134608 | 15 | 153 | 1.6 | 8.0 | 0.00 | 0.91 | 0.00 | 83 | 1018.6 |
| 20260507134051 | 14 | 121 | 1.6 | 8.0 | 0.00 | 0.91 | 0.00 | 85 | 1018.6 |
| 20260507133549 | 14 | 186 | 1.6 | 8.0 | 0.00 | 0.91 | 0.00 | 84 | 1018.5 |
| 20260507133056 | 14 | 153 | 1.6 | 6.4 | 0.00 | 0.91 | 0.00 | 85 | 1018.5 |
| 20260507132549 | 13 | 167 | 0.0 | 6.4 | 0.00 | 0.91 | 0.00 | 84 | 1018.4 |
| 20260507132049 | 13 | 274 | 1.6 | 6.4 | 0.00 | 0.91 | 0.00 | 85 | 1018.4 |
| 20260507131552 | 13 | 154 | 1.6 | 6.4 | 0.00 | 0.91 | 0.00 | 88 | 1018.5 |
| 20260507131050 | 13 | 120 | 1.6 | 6.4 | 0.00 | 0.91 | 0.00 | 88 | 1018.5 |
| 20260507130552 | 13 | 173 | 1.6 | 4.8 | 0.00 | 0.91 | 0.00 | 88 | 1018.5 |
| 20260507130056 | 13 | 134 | 0.0 | 4.8 | 0.00 | 0.91 | 0.00 | 90 | 1018.3 |
| 20260507125549 | 12 | 160 | 0.0 | 4.8 | 0.00 | 0.91 | 0.00 | 89 | 1018.3 |
| 20260507125055 | 12 | 159 | 0.0 | 4.8 | 0.00 | 0.91 | 0.00 | 90 | 1018.2 |
| 20260507124553 | 12 | 0 | 0.0 | 4.8 | 0.00 | 0.91 | 0.00 | 92 | 1018.2 |
| 20260507124050 | 12 | 191 | 0.0 | 4.8 | 0.00 | 0.91 | 0.00 | 93 | 1018.1 |
| 20260507123550 | 11 | 138 | 0.0 | 3.2 | 0.00 | 0.91 | 0.00 | 94 | 1018.0 |
| 20260507123052 | 11 | 0 | 0.0 | 3.2 | 0.00 | 0.91 | 0.00 | 96 | 1018.0 |
| 20260507122549 | 10 | 174 | 0.0 | 1.6 | 0.00 | 0.91 | 0.00 | 97 | 1017.9 |
| 20260507122048 | 10 | 0 | 0.0 | 1.6 | 0.00 | 0.91 | 0.00 | 97 | 1017.8 |
| 20260507121554 | 10 | 147 | 0.0 | 4.8 | 0.00 | 0.91 | 0.00 | 98 | 1017.7 |
| 20260507121050 | 10 | 0 | 0.0 | 4.8 | 0.00 | 0.91 | 0.00 | 98 | 1017.6 |
| 20260507120552 | 9 | 139 | 0.0 | 3.2 | 0.00 | 0.91 | 0.00 | 99 | 1017.4 |
| 20260507120054 | 9 | 134 | 0.0 | 1.6 | 0.00 | 0.91 | 0.00 | 99 | 1017.4 |
| 20260507115552 | 8 | 143 | 0.0 | 1.6 | 0.00 | 0.94 | 0.00 | 99 | 1017.3 |
| 20260507115049 | 8 | 0 | 0.0 | 1.6 | 0.00 | 0.94 | 0.00 | 99 | 1017.3 |
| 20260507114559 | 8 | 0 | 0.0 | 1.6 | 0.00 | 0.94 | 0.00 | 99 | 1017.3 |
| 20260507114049 | 8 | 0 | 0.0 | 1.6 | 0.00 | 0.94 | 0.00 | 99 | 1017.2 |
| 20260507113554 | 8 | 143 | 0.0 | 1.6 | 0.00 | 0.94 | 0.00 | 99 | 1017.1 |
| 20260507113052 | 8 | 0 | 0.0 | 1.6 | 0.00 | 0.94 | 0.00 | 99 | 1017.1 |
| 20260507112553 | 8 | 0 | 0.0 | 1.6 | 0.00 | 0.94 | 0.00 | 99 | 1017.1 |
| 20260507112049 | 8 | 0 | 0.0 | 1.6 | 0.00 | 0.94 | 0.00 | 99 | 1017.1 |
| 20260507111600 | 8 | 0 | 0.0 | 1.6 | 0.00 | 0.94 | 0.00 | 98 | 1017.1 |
| 20260507111053 | 8 | 0 | 0.0 | 1.6 | 0.00 | 0.94 | 0.00 | 99 | 1017.2 |
| 20260507110549 | 8 | 0 | 0.0 | 1.6 | 0.00 | 0.94 | 0.00 | 98 | 1017.1 |
| 20260507110056 | 8 | 0 | 0.0 | 0.0 | 0.00 | 0.94 | 0.00 | 98 | 1016.9 |
| 20260507105551 | 8 | 0 | 0.0 | 0.0 | 0.00 | 1.47 | 0.00 | 98 | 1017.0 |
| 20260507105052 | 8 | 0 | 0.0 | 0.0 | 0.00 | 1.47 | 0.00 | 98 | 1016.8 |
| 20260507104555 | 8 | 0 | 0.0 | 0.0 | 0.00 | 1.47 | 0.00 | 98 | 1016.9 |
| 20260507104051 | 8 | 0 | 0.0 | 1.6 | 0.00 | 1.47 | 0.00 | 98 | 1017.0 |
| 20260507103552 | 8 | 0 | 0.0 | 1.6 | 0.00 | 1.47 | 0.00 | 98 | 1016.9 |
| 20260507103054 | 8 | 0 | 0.0 | 1.6 | 0.00 | 1.47 | 0.00 | 98 | 1017.0 |
| 20260507102549 | 8 | 0 | 0.0 | 1.6 | 0.00 | 1.47 | 0.00 | 98 | 1016.9 |
| 20260507102052 | 8 | 0 | 0.0 | 1.6 | 0.00 | 1.47 | 0.00 | 98 | 1016.9 |
| 20260507101607 | 9 | 0 | 0.0 | 1.6 | 0.00 | 1.47 | 0.00 | 98 | 1016.7 |
| 20260507101048 | 9 | 0 | 0.0 | 1.6 | 0.00 | 1.47 | 0.00 | 98 | 1016.7 |
| 20260507100549 | 9 | 0 | 0.0 | 0.0 | 0.00 | 1.47 | 0.00 | 98 | 1016.7 |
| 20260507100055 | 9 | 0 | 0.0 | 1.6 | 0.00 | 1.47 | 0.00 | 98 | 1016.8 |
| 20260507095549 | 9 | 0 | 0.0 | 1.6 | 0.00 | 1.78 | 0.00 | 98 | 1016.8 |
| 20260507095050 | 9 | 0 | 0.0 | 1.6 | 0.00 | 1.78 | 0.00 | 98 | 1017.0 |
| 20260507094555 | 9 | 0 | 0.0 | 1.6 | 0.00 | 1.78 | 0.00 | 98 | 1016.9 |
| 20260507094052 | 9 | 0 | 0.0 | 1.6 | 0.00 | 1.78 | 0.00 | 98 | 1016.7 |
| 20260507093549 | 9 | 0 | 0.0 | 0.0 | 0.00 | 1.78 | 0.00 | 98 | 1016.8 |
| 20260507093057 | 9 | 0 | 0.0 | 0.0 | 0.00 | 1.78 | 0.00 | 98 | 1016.7 |
| 20260507092604 | 9 | 0 | 0.0 | 0.0 | 0.00 | 1.78 | 0.00 | 98 | 1016.6 |
| 20260507092052 | 9 | 0 | 0.0 | 0.0 | 0.00 | 1.78 | 0.00 | 98 | 1016.6 |
| 20260507091557 | 9 | 0 | 0.0 | 1.6 | 0.00 | 1.78 | 0.00 | 97 | 1016.5 |
| 20260507091052 | 9 | 0 | 0.0 | 1.6 | 0.00 | 1.78 | 0.00 | 97 | 1016.4 |
| 20260507090551 | 10 | 0 | 0.0 | 0.0 | 0.00 | 1.78 | 0.00 | 97 | 1016.4 |
| 20260507090052 | 10 | 0 | 0.0 | 0.0 | 0.00 | 1.78 | 0.00 | 97 | 1016.4 |
| 20260507085549 | 10 | 0 | 0.0 | 0.0 | 0.00 | 3.12 | 0.00 | 97 | 1016.3 |
| 20260507085052 | 10 | 0 | 0.0 | 0.0 | 0.00 | 3.12 | 0.00 | 97 | 1016.4 |
| 20260507084555 | 10 | 0 | 0.0 | 0.0 | 0.00 | 3.12 | 0.00 | 97 | 1016.3 |
| 20260507084049 | 10 | 0 | 0.0 | 1.6 | 0.00 | 3.12 | 0.00 | 97 | 1016.2 |
| 20260507083549 | 10 | 0 | 0.0 | 1.6 | 0.00 | 3.12 | 0.00 | 97 | 1016.1 |
| 20260507083053 | 10 | 0 | 0.0 | 1.6 | 0.00 | 3.12 | 0.00 | 97 | 1016.0 |
| 20260507082551 | 10 | 0 | 0.0 | 1.6 | 0.00 | 3.12 | 0.00 | 98 | 1016.0 |
| 20260507082049 | 10 | 0 | 0.0 | 1.6 | 0.00 | 3.12 | 0.00 | 98 | 1016.0 |
| 20260507081552 | 10 | 0 | 0.0 | 0.0 | 0.00 | 3.12 | 0.00 | 98 | 1016.2 |
| 20260507081049 | 10 | 0 | 0.0 | 0.0 | 0.00 | 3.12 | 0.00 | 98 | 1016.3 |
| 20260507080549 | 10 | 0 | 0.0 | 0.0 | 0.00 | 3.12 | 0.00 | 98 | 1016.4 |
| 20260507080055 | 10 | 0 | 0.0 | 0.0 | 0.00 | 3.12 | 0.00 | 97 | 1016.4 |
| 20260507075556 | 10 | 0 | 0.0 | 0.0 | 0.00 | 3.56 | 0.00 | 97 | 1016.5 |
| 20260507075049 | 10 | 0 | 0.0 | 0.0 | 0.00 | 3.56 | 0.00 | 97 | 1016.5 |
| 20260507074557 | 10 | 0 | 0.0 | 0.0 | 0.00 | 3.56 | 0.00 | 97 | 1016.5 |
| 20260507074051 | 10 | 0 | 0.0 | 0.0 | 0.00 | 3.56 | 0.00 | 97 | 1016.4 |
| 20260507073549 | 10 | 0 | 0.0 | 0.0 | 0.00 | 3.56 | 0.00 | 96 | 1016.4 |
| 20260507073052 | 10 | 0 | 0.0 | 0.0 | 0.00 | 3.56 | 0.00 | 96 | 1016.3 |
| 20260507072550 | 11 | 0 | 0.0 | 0.0 | 0.00 | 3.56 | 0.00 | 96 | 1016.3 |
| 20260507072049 | 11 | 0 | 0.0 | 1.6 | 0.00 | 3.56 | 0.00 | 96 | 1016.5 |
| 20260507071551 | 11 | 0 | 0.0 | 1.6 | 0.00 | 3.56 | 0.00 | 96 | 1016.4 |
| 20260507071051 | 11 | 0 | 0.0 | 1.6 | 0.00 | 3.56 | 0.00 | 96 | 1016.1 |
| 20260507070549 | 11 | 0 | 0.0 | 1.6 | 0.00 | 3.56 | 0.00 | 96 | 1016.3 |
| 20260507070056 | 11 | 0 | 0.0 | 1.6 | 0.00 | 3.56 | 0.00 | 96 | 1016.4 |
| 20260507065551 | 11 | 0 | 0.0 | 1.6 | 0.00 | 4.42 | 0.00 | 96 | 1016.5 |
| 20260507065051 | 11 | 0 | 0.0 | 1.6 | 0.00 | 4.42 | 0.00 | 97 | 1016.5 |
| 20260507064607 | 11 | 0 | 0.0 | 1.6 | 0.00 | 4.42 | 0.00 | 97 | 1016.4 |
| 20260507064052 | 11 | 0 | 0.0 | 1.6 | 0.00 | 4.42 | 0.00 | 97 | 1016.3 |
| 20260507063554 | 11 | 0 | 0.0 | 1.6 | 0.00 | 4.42 | 0.00 | 97 | 1016.3 |
| 20260507063058 | 11 | 0 | 0.0 | 1.6 | 0.00 | 4.42 | 0.00 | 97 | 1016.3 |
| 20260507062551 | 11 | 0 | 0.0 | 1.6 | 0.00 | 4.42 | 0.00 | 97 | 1016.4 |
| 20260507062049 | 11 | 0 | 0.0 | 1.6 | 0.00 | 4.42 | 0.00 | 97 | 1016.6 |
| 20260507061556 | 11 | 0 | 0.0 | 0.0 | 0.00 | 4.42 | 0.00 | 97 | 1016.6 |
| 20260507061100 | 11 | 0 | 0.0 | 1.6 | 0.00 | 4.42 | 0.00 | 97 | 1016.6 |
| 20260507060551 | 11 | 0 | 0.0 | 1.6 | 0.00 | 4.42 | 0.00 | 97 | 1016.5 |
| 20260507060058 | 11 | 0 | 0.0 | 1.6 | 0.00 | 4.42 | 0.00 | 97 | 1016.5 |
| 20260507055550 | 11 | 0 | 0.0 | 1.6 | 0.00 | 4.42 | 0.00 | 97 | 1016.5 |
| 20260507055049 | 11 | 0 | 0.0 | 1.6 | 0.00 | 4.42 | 0.00 | 97 | 1016.5 |
| 20260507054606 | 11 | 131 | 0.0 | 1.6 | 0.00 | 4.42 | 0.00 | 97 | 1016.3 |
| 20260507054052 | 11 | 0 | 0.0 | 1.6 | 0.00 | 4.42 | 0.00 | 97 | 1016.5 |
| 20260507053552 | 11 | 195 | 0.0 | 3.2 | 0.00 | 4.42 | 0.00 | 97 | 1016.3 |
| 20260507053055 | 11 | 0 | 0.0 | 3.2 | 0.00 | 4.42 | 0.00 | 97 | 1016.3 |
| 20260507052552 | 11 | 146 | 0.0 | 3.2 | 0.00 | 4.42 | 0.00 | 97 | 1016.3 |
| 20260507052052 | 11 | 140 | 0.0 | 3.2 | 0.00 | 4.42 | 0.00 | 97 | 1016.4 |
| 20260507051555 | 11 | 0 | 0.0 | 3.2 | 0.00 | 4.42 | 0.00 | 97 | 1016.2 |
| 20260507051052 | 11 | 117 | 0.0 | 1.6 | 0.00 | 4.42 | 0.00 | 97 | 1016.0 |
| 20260507050549 | 11 | 132 | 0.0 | 1.6 | 0.00 | 4.42 | 0.00 | 97 | 1015.9 |
| 20260507050056 | 11 | 131 | 0.0 | 1.6 | 0.00 | 4.42 | 0.00 | 97 | 1016.0 |
| 20260507045552 | 11 | 131 | 0.0 | 3.2 | 0.00 | 4.42 | 4.42 | 97 | 1016.1 |
| 20260507045050 | 11 | 155 | 0.0 | 3.2 | 0.00 | 4.42 | 4.42 | 97 | 1016.0 |
| 20260507044554 | 11 | 0 | 0.0 | 3.2 | 0.00 | 4.42 | 4.42 | 97 | 1016.1 |
| 20260507044049 | 11 | 136 | 0.0 | 1.6 | 0.00 | 4.42 | 4.42 | 97 | 1016.0 |
| 20260507043549 | 11 | 0 | 0.0 | 1.6 | 0.00 | 4.42 | 4.42 | 97 | 1016.3 |
| 20260507043059 | 11 | 136 | 0.0 | 1.6 | 0.00 | 4.42 | 4.42 | 97 | 1016.3 |
| 20260507042553 | 11 | 136 | 0.0 | 1.6 | 0.00 | 4.42 | 4.42 | 97 | 1016.5 |
| 20260507042051 | 11 | 0 | 0.0 | 1.6 | 0.00 | 4.42 | 4.42 | 97 | 1016.3 |
| 20260507041600 | 11 | 0 | 0.0 | 1.6 | 0.00 | 4.42 | 4.42 | 97 | 1016.1 |
| 20260507041054 | 11 | 0 | 0.0 | 1.6 | 0.00 | 4.42 | 4.42 | 97 | 1016.3 |
| 20260507040555 | 11 | 0 | 0.0 | 1.6 | 0.00 | 4.42 | 4.42 | 97 | 1016.2 |
| 20260507040058 | 11 | 0 | 0.0 | 3.2 | 0.00 | 4.42 | 4.42 | 97 | 1016.4 |
| 20260507035552 | 11 | 171 | 0.0 | 3.2 | 0.00 | 4.42 | 4.42 | 96 | 1016.4 |
| 20260507035052 | 11 | 160 | 0.0 | 0.0 | 0.00 | 4.42 | 4.42 | 96 | 1016.6 |
| 20260507034557 | 11 | 0 | 0.0 | 0.0 | 0.00 | 4.42 | 4.42 | 96 | 1016.8 |
| 20260507034048 | 11 | 0 | 0.0 | 0.0 | 0.00 | 4.42 | 4.42 | 96 | 1017.0 |
| 20260507033552 | 11 | 0 | 0.0 | 3.2 | 0.00 | 4.42 | 4.42 | 96 | 1016.9 |
| 20260507033054 | 11 | 0 | 0.0 | 3.2 | 0.00 | 4.42 | 4.42 | 96 | 1016.8 |
| 20260507032553 | 11 | 0 | 0.0 | 3.2 | 0.00 | 4.42 | 4.42 | 96 | 1016.9 |
| 20260507032053 | 11 | 0 | 0.0 | 3.2 | 0.00 | 4.42 | 4.42 | 96 | 1016.8 |
| 20260507031551 | 11 | 143 | 0.0 | 3.2 | 0.00 | 4.42 | 4.42 | 96 | 1016.4 |
| 20260507031052 | 11 | 114 | 0.0 | 3.2 | 0.00 | 4.42 | 4.42 | 96 | 1016.7 |
| 20260507030552 | 11 | 0 | 0.0 | 3.2 | 0.00 | 4.42 | 4.42 | 96 | 1016.6 |
| 20260507025551 | 11 | 0 | 0.0 | 0.0 | 0.00 | 4.42 | 4.42 | 96 | 1016.5 |
| 20260507025052 | 11 | 148 | 0.0 | 0.0 | 0.00 | 4.42 | 4.42 | 96 | 1016.3 |
| 20260507024557 | 11 | 0 | 0.0 | 3.2 | 0.00 | 4.42 | 4.42 | 96 | 1016.2 |
| 20260507024053 | 11 | 0 | 0.0 | 3.2 | 0.00 | 4.42 | 4.42 | 96 | 1016.2 |
| 20260507023552 | 11 | 168 | 0.0 | 3.2 | 0.00 | 4.42 | 4.42 | 96 | 1016.1 |
| 20260507023110 | 11 | 188 | 0.0 | 8.0 | 0.00 | 4.42 | 4.42 | 96 | 1016.0 |
| 20260507022552 | 11 | 0 | 1.6 | 8.0 | 0.00 | 4.42 | 4.42 | 96 | 1015.8 |
| 20260507022052 | 11 | 146 | 0.0 | 3.2 | 0.00 | 4.42 | 4.42 | 97 | 1015.8 |
| 20260507021558 | 11 | 0 | 0.0 | 3.2 | 0.00 | 4.42 | 4.42 | 97 | 1015.9 |
| 20260507021053 | 11 | 129 | 0.0 | 4.8 | 0.00 | 4.42 | 4.42 | 97 | 1015.8 |
| 20260507020549 | 11 | 155 | 0.0 | 4.8 | 0.00 | 4.42 | 4.42 | 97 | 1015.9 |
| 20260507020056 | 11 | 155 | 0.0 | 4.8 | 0.00 | 4.42 | 4.42 | 97 | 1016.0 |
| 20260507015551 | 11 | 0 | 0.0 | 3.2 | 0.00 | 4.42 | 4.42 | 97 | 1015.8 |
| 20260507015051 | 11 | 0 | 0.0 | 3.2 | 0.00 | 4.42 | 4.42 | 97 | 1015.7 |
| 20260507014605 | 11 | 115 | 0.0 | 3.2 | 0.00 | 4.42 | 4.42 | 97 | 1015.7 |
| 20260507014052 | 11 | 122 | 0.0 | 3.2 | 0.00 | 4.42 | 4.42 | 96 | 1015.6 |
| 20260507013551 | 11 | 0 | 0.0 | 6.4 | 0.00 | 4.42 | 4.42 | 96 | 1015.8 |
| 20260507013114 | 11 | 0 | 0.0 | 6.4 | 0.00 | 4.42 | 4.42 | 96 | 1015.2 |
| 20260507012552 | 11 | 139 | 0.0 | 6.4 | 0.00 | 4.42 | 4.42 | 96 | 1015.2 |
| 20260507012049 | 11 | 139 | 0.0 | 6.4 | 0.00 | 4.42 | 4.42 | 96 | 1015.5 |
| 20260507011552 | 11 | 150 | 1.6 | 6.4 | 0.00 | 4.42 | 4.42 | 96 | 1015.1 |
| 20260507011051 | 11 | 103 | 0.0 | 4.8 | 0.00 | 4.42 | 4.42 | 96 | 1015.1 |
| 20260507010552 | 11 | 122 | 0.0 | 4.8 | 0.00 | 4.42 | 4.42 | 96 | 1015.4 |
| 20260507010056 | 11 | 155 | 1.6 | 4.8 | 0.00 | 4.42 | 4.42 | 96 | 1015.1 |
| 20260507005552 | 11 | 106 | 1.6 | 4.8 | 0.03 | 4.42 | 4.42 | 96 | 1015.2 |
| 20260507005051 | 11 | 174 | 0.0 | 3.2 | 0.03 | 4.42 | 4.42 | 96 | 1015.3 |
| 20260507004553 | 11 | 150 | 0.0 | 4.8 | 0.03 | 4.42 | 4.42 | 96 | 1015.7 |
| 20260507004051 | 11 | 162 | 0.0 | 6.4 | 0.03 | 4.42 | 4.42 | 96 | 1015.8 |
| 20260507003549 | 11 | 89 | 0.0 | 6.4 | 0.03 | 4.42 | 4.42 | 96 | 1015.7 |
| 20260507003056 | 12 | 116 | 1.6 | 3.2 | 0.03 | 4.42 | 4.42 | 96 | 1015.7 |
| 20260507002551 | 12 | 143 | 0.0 | 4.8 | 0.03 | 4.42 | 4.42 | 96 | 1015.6 |
| 20260507002050 | 12 | 195 | 1.6 | 4.8 | 0.03 | 4.42 | 4.42 | 96 | 1015.8 |
| 20260507001609 | 12 | 158 | 0.0 | 3.2 | 0.03 | 4.42 | 4.42 | 96 | 1015.4 |
| 20260507001054 | 12 | 138 | 0.0 | 3.2 | 0.03 | 4.42 | 4.42 | 96 | 1015.6 |
| 20260507000549 | 12 | 0 | 0.0 | 4.8 | 0.03 | 4.42 | 4.42 | 96 | 1015.7 |
| 20260507000052 | 12 | 134 | 0.0 | 4.8 | 0.03 | 4.42 | 4.42 | 96 | 1015.5 |
| 20260506235550 | 12 | 166 | 0.0 | 3.2 | 0.00 | 4.39 | 4.39 | 95 | 1015.1 |
| 20260506235046 | 12 | 150 | 0.0 | 3.2 | 0.00 | 4.39 | 4.39 | 95 | 1015.4 |
| 20260506234552 | 12 | 143 | 0.0 | 3.2 | 0.00 | 4.39 | 4.39 | 95 | 1015.9 |
| 20260506234050 | 12 | 105 | 0.0 | 3.2 | 0.00 | 4.39 | 4.39 | 95 | 1015.7 |
| 20260506233549 | 12 | 140 | 0.0 | 4.8 | 0.00 | 4.39 | 4.39 | 95 | 1015.9 |
| 20260506233051 | 12 | 0 | 0.0 | 4.8 | 0.00 | 4.39 | 4.39 | 95 | 1016.1 |
| 20260506232549 | 12 | 138 | 1.6 | 4.8 | 0.00 | 4.39 | 4.39 | 95 | 1015.8 |
| 20260506232050 | 12 | 0 | 0.0 | 4.8 | 0.00 | 4.39 | 4.39 | 95 | 1015.4 |
| 20260506231551 | 12 | 0 | 1.6 | 4.8 | 0.00 | 4.39 | 4.39 | 95 | 1015.3 |
| 20260506231050 | 12 | 154 | 0.0 | 6.4 | 0.00 | 4.39 | 4.39 | 95 | 1015.5 |
| 20260506230549 | 12 | 142 | 0.0 | 6.4 | 0.00 | 4.39 | 4.39 | 95 | 1015.5 |
| 20260506230055 | 12 | 103 | 1.6 | 6.4 | 0.00 | 4.39 | 4.39 | 94 | 1015.4 |
| 20260506225547 | 12 | 168 | 1.6 | 4.8 | 0.00 | 4.39 | 4.39 | 95 | 1015.4 |
| 20260506225047 | 12 | 127 | 0.0 | 6.4 | 0.00 | 4.39 | 4.39 | 95 | 1015.0 |
| 20260506224552 | 12 | 153 | 1.6 | 8.0 | 0.00 | 4.39 | 4.39 | 94 | 1014.9 |
| 20260506224050 | 12 | 120 | 0.0 | 8.0 | 0.00 | 4.39 | 4.39 | 94 | 1014.6 |
| 20260506223549 | 12 | 174 | 3.2 | 8.0 | 0.00 | 4.39 | 4.39 | 94 | 1014.6 |
| 20260506223111 | 12 | 177 | 1.6 | 9.7 | 0.00 | 4.39 | 4.39 | 94 | 1014.5 |
| 20260506222548 | 12 | 152 | 3.2 | 9.7 | 0.00 | 4.39 | 4.39 | 94 | 1014.2 |
| 20260506222052 | 12 | 182 | 3.2 | 9.7 | 0.00 | 4.39 | 4.39 | 94 | 1014.2 |
| 20260506221555 | 12 | 212 | 0.0 | 9.7 | 0.00 | 4.39 | 4.39 | 95 | 1014.2 |
| 20260506221050 | 12 | 165 | 1.6 | 9.7 | 0.00 | 4.39 | 4.39 | 95 | 1014.1 |
| 20260506220550 | 12 | 136 | 1.6 | 9.7 | 0.03 | 4.39 | 4.39 | 95 | 1014.1 |
| 20260506220056 | 12 | 138 | 3.2 | 9.7 | 0.03 | 4.39 | 4.39 | 95 | 1014.3 |
| 20260506215549 | 12 | 141 | 1.6 | 8.0 | 0.03 | 4.39 | 4.39 | 95 | 1014.3 |
| 20260506215047 | 12 | 87 | 1.6 | 8.0 | 0.05 | 4.39 | 4.39 | 95 | 1014.3 |
| 20260506214558 | 12 | 147 | 1.6 | 8.0 | 0.05 | 4.39 | 4.39 | 96 | 1014.1 |
| 20260506214052 | 12 | 160 | 1.6 | 8.0 | 0.05 | 4.39 | 4.39 | 95 | 1014.3 |
| 20260506213550 | 12 | 55 | 1.6 | 8.0 | 0.05 | 4.39 | 4.39 | 96 | 1014.4 |
| 20260506213054 | 12 | 172 | 1.6 | 8.0 | 0.05 | 4.39 | 4.39 | 95 | 1014.1 |
| 20260506212549 | 12 | 153 | 1.6 | 6.4 | 0.08 | 4.39 | 4.39 | 95 | 1014.3 |
| 20260506212049 | 12 | 0 | 1.6 | 3.2 | 0.10 | 4.39 | 4.39 | 95 | 1015.0 |
| 20260506211552 | 12 | 134 | 0.0 | 3.2 | 0.10 | 4.39 | 4.39 | 95 | 1015.4 |
| 20260506211050 | 12 | 153 | 0.0 | 3.2 | 0.13 | 4.39 | 4.39 | 95 | 1015.5 |
| 20260506210546 | 12 | 153 | 0.0 | 3.2 | 0.10 | 4.37 | 4.37 | 95 | 1015.8 |
| 20260506210109 | 12 | 126 | 0.0 | 3.2 | 0.13 | 4.37 | 4.37 | 94 | 1015.8 |
| 20260506205550 | 12 | 94 | 1.6 | 4.8 | 0.13 | 4.37 | 4.37 | 94 | 1015.6 |
| 20260506205050 | 12 | 124 | 0.0 | 6.4 | 0.10 | 4.34 | 4.34 | 94 | 1015.4 |
| 20260506204555 | 12 | 133 | 1.6 | 6.4 | 0.10 | 4.34 | 4.34 | 94 | 1015.2 |
| 20260506204052 | 12 | 169 | 1.6 | 8.0 | 0.10 | 4.34 | 4.34 | 94 | 1015.2 |
| 20260506203551 | 12 | 118 | 0.0 | 8.0 | 0.10 | 4.34 | 4.34 | 95 | 1015.3 |
| 20260506203101 | 12 | 193 | 1.6 | 8.0 | 0.10 | 4.34 | 4.34 | 94 | 1015.0 |
| 20260506202552 | 12 | 162 | 0.0 | 4.8 | 0.08 | 4.32 | 4.32 | 95 | 1015.3 |
| 20260506202052 | 12 | 199 | 0.0 | 4.8 | 0.05 | 4.29 | 4.29 | 94 | 1015.4 |
| 20260506201558 | 12 | 209 | 1.6 | 6.4 | 0.05 | 4.29 | 4.29 | 93 | 1015.5 |
| 20260506201053 | 12 | 0 | 1.6 | 6.4 | 0.03 | 4.27 | 4.27 | 93 | 1016.4 |
| 20260506200551 | 12 | 116 | 1.6 | 3.2 | 0.03 | 4.27 | 4.27 | 93 | 1015.8 |
| 20260506200136 | 12 | 156 | 1.6 | 3.2 | 0.00 | 4.24 | 4.24 | 92 | 1016.2 |
| 20260506195552 | 12 | 120 | 0.0 | 4.8 | 0.00 | 4.24 | 4.24 | 92 | 1016.2 |
| 20260506195052 | 12 | 108 | 1.6 | 4.8 | 0.00 | 4.24 | 4.24 | 92 | 1016.2 |
| 20260506194604 | 12 | 148 | 0.0 | 9.7 | 0.00 | 4.24 | 4.24 | 92 | 1016.1 |
| 20260506194051 | 12 | 91 | 0.0 | 9.7 | 0.00 | 4.24 | 4.24 | 92 | 1015.9 |
| 20260506193551 | 12 | 131 | 1.6 | 8.0 | 0.00 | 4.24 | 4.24 | 92 | 1016.0 |
| 20260506193058 | 12 | 108 | 1.6 | 6.4 | 0.00 | 4.24 | 4.24 | 92 | 1016.1 |
| 20260506192551 | 13 | 127 | 1.6 | 4.8 | 0.00 | 4.24 | 4.24 | 92 | 1016.2 |
| 20260506192051 | 13 | 118 | 0.0 | 4.8 | 0.00 | 4.24 | 4.24 | 93 | 1016.2 |
| 20260506191551 | 13 | 179 | 1.6 | 4.8 | 0.00 | 4.24 | 4.24 | 93 | 1016.0 |
| 20260506191052 | 12 | 260 | 0.0 | 1.6 | 0.00 | 4.24 | 4.24 | 92 | 1016.1 |
| 20260506190551 | 12 | 141 | 0.0 | 4.8 | 0.00 | 4.24 | 4.24 | 93 | 1016.3 |
| 20260506190052 | 12 | 111 | 0.0 | 6.4 | 0.00 | 4.24 | 4.24 | 93 | 1016.4 |
| 20260506185553 | 12 | 93 | 0.0 | 6.4 | 0.00 | 4.29 | 4.24 | 93 | 1016.2 |
| 20260506185052 | 12 | 177 | 1.6 | 4.8 | 0.00 | 4.29 | 4.24 | 93 | 1015.9 |
| 20260506184554 | 12 | 141 | 1.6 | 4.8 | 0.00 | 4.29 | 4.24 | 94 | 1015.7 |
| 20260506184053 | 12 | 0 | 0.0 | 4.8 | 0.00 | 4.29 | 4.24 | 93 | 1015.5 |
| 20260506183552 | 12 | 188 | 0.0 | 8.0 | 0.00 | 4.29 | 4.24 | 93 | 1015.7 |
| 20260506183055 | 12 | 129 | 0.0 | 8.0 | 0.00 | 4.29 | 4.24 | 94 | 1015.8 |
| 20260506182551 | 12 | 137 | 1.6 | 4.8 | 0.00 | 4.29 | 4.24 | 94 | 1015.6 |
| 20260506182053 | 12 | 158 | 1.6 | 6.4 | 0.00 | 4.29 | 4.24 | 94 | 1015.6 |
| 20260506181553 | 12 | 162 | 0.0 | 6.4 | 0.00 | 4.29 | 4.24 | 95 | 1015.6 |
| 20260506181053 | 12 | 129 | 1.6 | 8.0 | 0.00 | 4.29 | 4.24 | 95 | 1015.7 |
| 20260506180552 | 12 | 179 | 1.6 | 8.0 | 0.00 | 4.29 | 4.24 | 95 | 1015.7 |
| 20260506180105 | 12 | 108 | 1.6 | 6.4 | 0.00 | 4.29 | 4.24 | 97 | 1015.5 |
| 20260506175553 | 12 | 108 | 1.6 | 6.4 | 0.00 | 4.32 | 4.24 | 97 | 1015.6 |
| 20260506175051 | 12 | 120 | 1.6 | 6.4 | 0.00 | 4.32 | 4.24 | 97 | 1015.5 |
| 20260506174555 | 12 | 118 | 1.6 | 6.4 | 0.00 | 4.32 | 4.24 | 97 | 1015.2 |
| 20260506174049 | 11 | 181 | 1.6 | 4.8 | 0.00 | 4.32 | 4.24 | 97 | 1015.5 |
| 20260506173552 | 11 | 124 | 0.0 | 4.8 | 0.00 | 4.32 | 4.24 | 97 | 1015.7 |
| 20260506173107 | 11 | 139 | 0.0 | 6.4 | 0.10 | 4.32 | 4.24 | 97 | 1015.7 |
| 20260506172553 | 11 | 169 | 1.6 | 8.0 | 0.13 | 4.32 | 4.24 | 97 | 1015.5 |
| 20260506172051 | 11 | 144 | 1.6 | 8.0 | 0.13 | 4.32 | 4.24 | 97 | 1015.8 |
| 20260506171557 | 11 | 100 | 0.0 | 8.0 | 0.18 | 4.32 | 4.24 | 98 | 1016.0 |
| 20260506171049 | 11 | 155 | 3.2 | 8.0 | 0.15 | 4.29 | 4.22 | 98 | 1015.9 |
| 20260506170549 | 11 | 146 | 1.6 | 6.4 | 0.15 | 4.29 | 4.22 | 97 | 1015.8 |
| 20260506170058 | 11 | 149 | 1.6 | 4.8 | 0.15 | 4.29 | 4.22 | 97 | 1015.9 |
| 20260506165549 | 11 | 147 | 1.6 | 4.8 | 0.15 | 4.67 | 4.22 | 98 | 1016.0 |
| 20260506165049 | 11 | 141 | 0.0 | 6.4 | 0.15 | 4.65 | 4.19 | 98 | 1016.0 |
| 20260506164553 | 11 | 110 | 0.0 | 6.4 | 0.13 | 4.62 | 4.17 | 98 | 1015.8 |
| 20260506164051 | 11 | 122 | 1.6 | 6.4 | 0.13 | 4.60 | 4.14 | 97 | 1016.3 |
| 20260506163549 | 11 | 116 | 1.6 | 6.4 | 0.13 | 4.60 | 4.14 | 98 | 1015.7 |
| 20260506163053 | 10 | 115 | 0.0 | 4.8 | 0.15 | 4.60 | 4.14 | 98 | 1015.5 |
| 20260506162553 | 10 | 149 | 1.6 | 6.4 | 0.13 | 4.57 | 4.11 | 98 | 1015.6 |
| 20260506162051 | 10 | 109 | 1.6 | 6.4 | 0.15 | 4.57 | 4.11 | 98 | 1015.5 |
| 20260506161557 | 10 | 150 | 1.6 | 6.4 | 0.13 | 4.52 | 4.06 | 98 | 1015.3 |
| 20260506161049 | 10 | 109 | 1.6 | 6.4 | 0.13 | 4.52 | 4.06 | 98 | 1015.4 |
| 20260506160549 | 10 | 165 | 1.6 | 9.7 | 0.13 | 4.52 | 4.06 | 98 | 1015.2 |
| 20260506160106 | 10 | 163 | 3.2 | 9.7 | 0.13 | 4.52 | 4.06 | 97 | 1015.1 |
| 20260506155548 | 11 | 117 | 1.6 | 8.0 | 0.13 | 5.31 | 4.06 | 97 | 1015.2 |
| 20260506155050 | 11 | 193 | 1.6 | 8.0 | 0.13 | 5.28 | 4.04 | 97 | 1015.0 |
| 20260506154600 | 11 | 109 | 3.2 | 8.0 | 0.15 | 5.28 | 4.04 | 98 | 1015.2 |
| 20260506154049 | 11 | 127 | 0.0 | 8.0 | 0.15 | 5.28 | 4.01 | 99 | 1015.5 |
| 20260506153548 | 11 | 153 | 3.2 | 8.0 | 0.18 | 5.28 | 4.01 | 98 | 1014.6 |
| 20260506153057 | 11 | 200 | 1.6 | 8.0 | 0.20 | 5.26 | 3.99 | 98 | 1015.3 |
| 20260506152548 | 11 | 119 | 1.6 | 6.4 | 0.20 | 5.26 | 3.99 | 98 | 1015.1 |
| 20260506152048 | 10 | 129 | 1.6 | 4.8 | 0.23 | 5.23 | 3.96 | 98 | 1014.6 |
| 20260506151559 | 10 | 119 | 1.6 | 4.8 | 0.25 | 5.21 | 3.94 | 98 | 1015.3 |
| 20260506151049 | 10 | 162 | 1.6 | 3.2 | 0.30 | 5.21 | 3.94 | 98 | 1015.2 |
| 20260506150552 | 11 | 145 | 0.0 | 3.2 | 0.36 | 5.21 | 3.94 | 98 | 1015.3 |
| 20260506150105 | 11 | 122 | 0.0 | 4.8 | 0.38 | 5.21 | 3.94 | 98 | 1015.4 |
| 20260506145553 | 10 | 129 | 1.6 | 6.4 | 0.38 | 5.79 | 3.94 | 98 | 1015.1 |
| 20260506145048 | 11 | 120 | 0.0 | 6.4 | 0.38 | 5.77 | 3.91 | 98 | 1015.4 |
| 20260506144602 | 10 | 0 | 1.6 | 6.4 | 0.38 | 5.74 | 3.89 | 98 | 1014.9 |
| 20260506144051 | 10 | 105 | 0.0 | 4.8 | 0.36 | 5.71 | 3.86 | 98 | 1015.1 |
| 20260506143551 | 10 | 167 | 1.6 | 6.4 | 0.33 | 5.69 | 3.84 | 98 | 1014.7 |
| 20260506143058 | 11 | 174 | 0.0 | 6.4 | 0.28 | 5.64 | 3.78 | 98 | 1015.0 |
| 20260506142548 | 11 | 169 | 1.6 | 6.4 | 0.28 | 5.64 | 3.78 | 98 | 1015.1 |
| 20260506142053 | 11 | 0 | 0.0 | 3.2 | 0.23 | 5.59 | 3.73 | 98 | 1014.7 |
| 20260506141559 | 11 | 148 | 0.0 | 3.2 | 0.18 | 5.54 | 3.68 | 97 | 1014.2 |
| 20260506141051 | 11 | 146 | 0.0 | 8.0 | 0.13 | 5.49 | 3.63 | 98 | 1015.0 |